Time,TemperatureF,DewpointF,PressureIn,WindDirection,WindDirectionDegrees,WindSpeedMPH,WindSpeedGustMPH,Humidity,HourlyPrecipIn,Conditions,Clouds,dailyrainin,SoftwareType,DateUTC
2013-01-27 00:02:00,44.8,44.8,29.85,North,-999,-999.0,-999.0,100,0.00,,,0.00,WSDL version 420,2013-01-27 07:02:00,
2013-01-27 00:07:00,44.7,44.7,29.85,North,-999,-999.0,-999.0,100,0.00,,,0.00,WSDL version 420,2013-01-27 07:07:00,
2013-01-27 00:14:00,44.6,44.6,29.85,North,-999,-999.0,-999.0,100,0.00,,,0.00,WSDL version 420,2013-01-27 07:14:00,
2013-01-27 00:19:00,44.6,44.6,29.85,North,-999,-999.0,-999.0,100,0.00,,,0.00,WSDL version 420,2013-01-27 07:19:00,
2013-01-27 00:24:00,44.7,44.7,29.85,North,-999,-999.0,-999.0,100,0.00,,,0.00,WSDL version 420,2013-01-27 07:24:00,
2013-01-27 00:29:00,44.8,44.8,29.85,North,-999,-999.0,-999.0,100,0.00,,,0.00,WSDL version 420,2013-01-27 07:29:00,
2013-01-27 00:34:00,44.8,44.8,29.85,North,-999,-999.0,-999.0,100,0.00,,,0.00,WSDL version 420,2013-01-27 07:34:00,
2013-01-27 00:39:00,44.8,44.8,29.85,North,-999,-999.0,-999.0,100,0.00,,,0.00,WSDL version 420,2013-01-27 07:39:00,
2013-01-27 00:44:00,44.8,44.8,29.85,North,-999,-999.0,-999.0,100,0.00,,,0.00,WSDL version 420,2013-01-27 07:44:00,
2013-01-27 00:49:00,44.8,44.8,29.85,North,-999,-999.0,-999.0,100,0.00,,,0.00,WSDL version 420,2013-01-27 07:49:00,
2013-01-27 00:54:00,44.8,44.8,29.85,SSW,203,3.1,3.1,100,0.00,,,0.00,WSDL version 420,2013-01-27 07:54:00,
2013-01-27 00:59:00,44.8,44.8,29.85,North,-999,-999.0,-999.0,100,0.00,,,0.00,WSDL version 420,2013-01-27 07:59:00,
2013-01-27 01:04:00,44.8,44.8,29.85,SSW,203,2.5,3.1,100,0.00,,,0.00,WSDL version 420,2013-01-27 08:04:00,
2013-01-27 01:09:00,44.8,44.8,29.85,North,-999,-999.0,-999.0,100,0.00,,,0.00,WSDL version 420,2013-01-27 08:09:00,
2013-01-27 01:14:00,44.8,44.8,29.85,North,-999,-999.0,-999.0,100,0.00,,,0.00,WSDL version 420,2013-01-27 08:14:00,
2013-01-27 01:19:00,44.8,44.8,29.85,North,-999,-999.0,-999.0,100,0.00,,,0.00,WSDL version 420,2013-01-27 08:19:00,
2013-01-27 01:24:00,44.8,44.8,29.85,North,-999,-999.0,-999.0,100,0.00,,,0.00,WSDL version 420,2013-01-27 08:24:00,
2013-01-27 01:29:00,44.8,44.8,29.83,North,-999,-999.0,-999.0,100,0.00,,,0.00,WSDL version 420,2013-01-27 08:29:00,
2013-01-27 01:34:00,44.7,44.7,29.83,North,-999,-999.0,-999.0,100,0.00,,,0.00,WSDL version 420,2013-01-27 08:34:00,
2013-01-27 01:39:00,44.6,44.6,29.83,North,-999,-999.0,-999.0,100,0.00,,,0.00,WSDL version 420,2013-01-27 08:39:00,
2013-01-27 01:44:00,44.6,44.6,29.85,SSE,158,4.5,4.5,100,0.00,,,0.00,WSDL version 420,2013-01-27 08:44:00,
2013-01-27 01:49:00,44.6,44.6,29.85,South,180,2.2,2.9,100,0.00,,,0.00,WSDL version 420,2013-01-27 08:49:00,
2013-01-27 01:54:00,44.6,44.6,29.85,North,-999,-999.0,-999.0,100,0.00,,,0.00,WSDL version 420,2013-01-27 08:54:00,
2013-01-27 01:59:00,44.6,44.6,29.85,SSE,158,2.9,3.6,100,0.00,,,0.00,WSDL version 420,2013-01-27 08:59:00,
2013-01-27 02:04:00,44.6,44.6,29.85,North,-999,-999.0,-999.0,100,0.00,,,0.00,WSDL version 420,2013-01-27 09:04:00,
2013-01-27 02:09:00,44.6,44.6,29.85,North,-999,-999.0,-999.0,100,0.00,,,0.00,WSDL version 420,2013-01-27 09:09:00,
2013-01-27 02:14:00,44.6,44.6,29.83,North,-999,-999.0,-999.0,100,0.00,,,0.00,WSDL version 420,2013-01-27 09:14:00,
2013-01-27 02:19:00,44.6,44.6,29.83,North,-999,-999.0,-999.0,100,0.00,,,0.00,WSDL version 420,2013-01-27 09:19:00,
2013-01-27 02:24:00,44.6,44.6,29.83,North,-999,-999.0,-999.0,100,0.00,,,0.00,WSDL version 420,2013-01-27 09:24:00,
2013-01-27 02:29:00,44.6,44.6,29.83,North,-999,-999.0,-999.0,100,0.00,,,0.00,WSDL version 420,2013-01-27 09:29:00,
2013-01-27 02:34:00,44.6,44.6,29.83,North,-999,-999.0,-999.0,100,0.00,,,0.00,WSDL version 420,2013-01-27 09:34:00,
2013-01-27 02:39:00,44.6,44.6,29.83,North,-999,-999.0,-999.0,100,0.05,,,0.05,WSDL version 420,2013-01-27 09:39:00,
2013-01-27 02:44:00,44.6,44.6,29.83,North,-999,-999.0,-999.0,100,0.05,,,0.05,WSDL version 420,2013-01-27 09:44:00,
2013-01-27 02:49:00,44.5,44.5,29.83,North,-999,-999.0,-999.0,100,0.05,,,0.05,WSDL version 420,2013-01-27 09:49:00,
2013-01-27 02:54:00,44.5,44.5,29.83,North,-999,-999.0,-999.0,100,0.05,,,0.05,WSDL version 420,2013-01-27 09:54:00,
2013-01-27 02:59:00,44.4,44.4,29.83,North,-999,-999.0,-999.0,100,0.05,,,0.05,WSDL version 420,2013-01-27 09:59:00,
2013-01-27 03:04:00,44.4,44.4,29.83,SSE,158,3.1,3.4,100,0.05,,,0.05,WSDL version 420,2013-01-27 10:04:00,
2013-01-27 03:09:00,44.4,44.4,29.83,North,-999,-999.0,-999.0,100,0.05,,,0.05,WSDL version 420,2013-01-27 10:09:00,
2013-01-27 03:14:00,44.2,44.2,29.83,North,-999,-999.0,-999.0,100,0.05,,,0.05,WSDL version 420,2013-01-27 10:14:00,
2013-01-27 03:19:00,44.2,44.2,29.83,North,-999,-999.0,-999.0,100,0.05,,,0.05,WSDL version 420,2013-01-27 10:19:00,
2013-01-27 03:24:00,44.2,44.2,29.83,North,-999,-999.0,-999.0,100,0.05,,,0.05,WSDL version 420,2013-01-27 10:24:00,
2013-01-27 03:29:00,44.2,44.2,29.83,North,-999,-999.0,-999.0,100,0.05,,,0.05,WSDL version 420,2013-01-27 10:29:00,
2013-01-27 03:34:00,44.2,44.2,29.83,North,-999,-999.0,-999.0,100,0.05,,,0.05,WSDL version 420,2013-01-27 10:34:00,
2013-01-27 03:39:00,44.2,44.2,29.83,North,0,0.0,4.3,100,0.00,,,0.05,WSDL version 420,2013-01-27 10:39:00,
2013-01-27 03:44:00,44.2,44.2,29.83,North,-999,-999.0,-999.0,100,0.00,,,0.05,WSDL version 420,2013-01-27 10:44:00,
2013-01-27 03:49:00,44.2,44.2,29.83,SSE,158,2.5,3.4,100,0.00,,,0.05,WSDL version 420,2013-01-27 10:49:00,
2013-01-27 03:54:00,44.2,44.2,29.83,North,-999,-999.0,-999.0,100,0.00,,,0.05,WSDL version 420,2013-01-27 10:54:00,
2013-01-27 03:59:00,44.2,44.2,29.83,North,-999,-999.0,-999.0,100,0.00,,,0.05,WSDL version 420,2013-01-27 10:59:00,
2013-01-27 04:04:00,44.2,44.2,29.83,North,-999,-999.0,-999.0,100,0.00,,,0.05,WSDL version 420,2013-01-27 11:04:00,
2013-01-27 04:09:00,44.2,44.2,29.83,North,-999,-999.0,-999.0,100,0.00,,,0.05,WSDL version 420,2013-01-27 11:09:00,
2013-01-27 04:14:00,44.2,44.2,29.83,North,-999,-999.0,-999.0,100,0.00,,,0.05,WSDL version 420,2013-01-27 11:14:00,
2013-01-27 04:19:00,44.2,44.2,29.83,SSE,158,3.6,5.4,100,0.00,,,0.05,WSDL version 420,2013-01-27 11:19:00,
2013-01-27 04:24:00,44.2,44.2,29.83,North,-999,-999.0,-999.0,100,0.00,,,0.05,WSDL version 420,2013-01-27 11:24:00,
2013-01-27 04:29:00,44.2,44.2,29.83,SSE,158,4.9,4.9,100,0.00,,,0.05,WSDL version 420,2013-01-27 11:29:00,
2013-01-27 04:34:00,44.2,44.2,29.83,North,-999,-999.0,-999.0,100,0.00,,,0.05,WSDL version 420,2013-01-27 11:34:00,
2013-01-27 04:39:00,44.2,44.2,29.83,North,-999,-999.0,-999.0,100,0.00,,,0.05,WSDL version 420,2013-01-27 11:39:00,
2013-01-27 04:44:00,44.2,44.2,29.83,North,-999,-999.0,-999.0,100,0.00,,,0.05,WSDL version 420,2013-01-27 11:44:00,
2013-01-27 04:49:00,44.2,44.2,29.83,South,180,6.3,6.3,100,0.00,,,0.05,WSDL version 420,2013-01-27 11:49:00,
2013-01-27 04:54:00,44.1,44.1,29.83,North,-999,-999.0,-999.0,100,0.00,,,0.05,WSDL version 420,2013-01-27 11:54:00,
2013-01-27 04:59:00,44.1,44.1,29.83,North,-999,-999.0,-999.0,100,0.00,,,0.05,WSDL version 420,2013-01-27 11:59:00,
2013-01-27 05:04:00,44.1,44.1,29.83,North,-999,-999.0,-999.0,100,0.00,,,0.05,WSDL version 420,2013-01-27 12:04:00,
2013-01-27 05:09:00,44.1,44.1,29.83,SE,135,6.7,6.7,100,0.00,,,0.05,WSDL version 420,2013-01-27 12:09:00,
2013-01-27 05:14:00,44.1,44.1,29.83,SSE,158,6.3,7.2,100,0.00,,,0.05,WSDL version 420,2013-01-27 12:14:00,
2013-01-27 05:19:00,44.1,44.1,29.83,North,0,0.0,7.2,100,0.00,,,0.05,WSDL version 420,2013-01-27 12:19:00,
2013-01-27 05:24:00,44.1,44.1,29.83,North,-999,-999.0,-999.0,100,0.00,,,0.05,WSDL version 420,2013-01-27 12:24:00,
2013-01-27 05:29:00,44.1,44.1,29.83,SSE,158,4.7,5.4,100,0.00,,,0.05,WSDL version 420,2013-01-27 12:29:00,
2013-01-27 05:34:00,44.1,44.1,29.83,SSE,158,4.0,6.0,100,0.00,,,0.05,WSDL version 420,2013-01-27 12:34:00,
2013-01-27 05:39:00,44.1,44.1,29.83,North,-999,-999.0,-999.0,100,0.00,,,0.05,WSDL version 420,2013-01-27 12:39:00,
2013-01-27 05:44:00,44.1,44.1,29.83,North,-999,-999.0,-999.0,100,0.00,,,0.05,WSDL version 420,2013-01-27 12:44:00,
2013-01-27 05:49:00,44.2,44.2,29.83,North,-999,-999.0,-999.0,100,0.00,,,0.05,WSDL version 420,2013-01-27 12:49:00,
2013-01-27 05:54:00,44.2,44.2,29.83,North,0,0.0,8.1,100,0.00,,,0.05,WSDL version 420,2013-01-27 12:54:00,
2013-01-27 05:59:00,44.2,44.2,29.83,SSE,158,6.3,10.1,100,0.00,,,0.05,WSDL version 420,2013-01-27 12:59:00,
2013-01-27 06:04:00,44.1,44.1,29.83,North,-999,-999.0,-999.0,100,0.00,,,0.05,WSDL version 420,2013-01-27 13:04:00,
2013-01-27 06:09:00,44.2,44.2,29.83,SSE,158,3.8,4.7,100,0.00,,,0.05,WSDL version 420,2013-01-27 13:09:00,
2013-01-27 06:14:00,44.2,44.2,29.83,SSE,158,5.6,5.8,100,0.00,,,0.05,WSDL version 420,2013-01-27 13:14:00,
2013-01-27 06:19:00,44.2,44.2,29.83,North,-999,-999.0,-999.0,100,0.00,,,0.05,WSDL version 420,2013-01-27 13:19:00,
2013-01-27 06:24:00,44.2,44.2,29.83,North,-999,-999.0,-999.0,100,0.00,,,0.05,WSDL version 420,2013-01-27 13:24:00,
2013-01-27 06:29:00,44.2,44.2,29.83,North,-999,-999.0,-999.0,100,0.00,,,0.05,WSDL version 420,2013-01-27 13:29:00,
2013-01-27 06:34:00,44.2,44.2,29.83,SSE,158,5.6,5.6,100,0.00,,,0.05,WSDL version 420,2013-01-27 13:34:00,
2013-01-27 06:39:00,44.2,44.2,29.83,North,-999,-999.0,-999.0,100,0.00,,,0.05,WSDL version 420,2013-01-27 13:39:00,
2013-01-27 06:44:00,44.2,44.2,29.85,North,-999,-999.0,-999.0,100,0.00,,,0.05,WSDL version 420,2013-01-27 13:44:00,
2013-01-27 06:49:00,44.2,44.2,29.85,North,-999,-999.0,-999.0,100,0.00,,,0.05,WSDL version 420,2013-01-27 13:49:00,
2013-01-27 06:54:00,44.1,44.1,29.85,North,-999,-999.0,-999.0,100,0.00,,,0.05,WSDL version 420,2013-01-27 13:54:00,
2013-01-27 06:59:00,44.1,44.1,29.85,North,-999,-999.0,-999.0,100,0.00,,,0.05,WSDL version 420,2013-01-27 13:59:00,
2013-01-27 07:04:00,44.1,44.1,29.85,North,-999,-999.0,-999.0,100,0.00,,,0.05,WSDL version 420,2013-01-27 14:04:00,
2013-01-27 07:09:00,44.1,44.1,29.85,North,-999,-999.0,-999.0,100,0.00,,,0.05,WSDL version 420,2013-01-27 14:09:00,
2013-01-27 07:14:00,44.1,44.1,29.85,North,-999,-999.0,-999.0,100,0.00,,,0.05,WSDL version 420,2013-01-27 14:14:00,
2013-01-27 07:19:00,44.1,44.1,29.85,North,0,0.0,4.3,100,0.00,,,0.05,WSDL version 420,2013-01-27 14:19:00,
2013-01-27 07:24:00,44.1,44.1,29.85,North,-999,-999.0,-999.0,100,0.00,,,0.05,WSDL version 420,2013-01-27 14:24:00,
2013-01-27 07:29:00,44.1,44.1,29.85,North,-999,-999.0,-999.0,100,0.00,,,0.05,WSDL version 420,2013-01-27 14:29:00,
2013-01-27 07:34:00,44.1,44.1,29.85,SSE,158,5.8,7.4,100,0.00,,,0.05,WSDL version 420,2013-01-27 14:34:00,
2013-01-27 07:39:00,44.1,44.1,29.85,SSE,158,6.7,7.4,100,0.00,,,0.05,WSDL version 420,2013-01-27 14:39:00,
2013-01-27 07:44:00,44.1,44.1,29.85,North,-999,-999.0,-999.0,100,0.00,,,0.05,WSDL version 420,2013-01-27 14:44:00,
2013-01-27 07:49:00,44.1,44.1,29.85,North,-999,-999.0,-999.0,100,0.00,,,0.05,WSDL version 420,2013-01-27 14:49:00,
2013-01-27 07:54:00,44.1,44.1,29.85,North,-999,-999.0,-999.0,100,0.00,,,0.05,WSDL version 420,2013-01-27 14:54:00,
2013-01-27 07:59:00,44.1,44.1,29.85,North,-999,-999.0,-999.0,100,0.00,,,0.05,WSDL version 420,2013-01-27 14:59:00,
2013-01-27 08:04:00,44.1,44.1,29.85,North,-999,-999.0,-999.0,100,0.00,,,0.05,WSDL version 420,2013-01-27 15:04:00,
2013-01-27 08:09:00,44.1,44.1,29.85,SSE,158,6.5,6.5,100,0.00,,,0.05,WSDL version 420,2013-01-27 15:09:00,
2013-01-27 08:14:00,44.1,44.1,29.85,North,-999,-999.0,-999.0,100,0.00,,,0.05,WSDL version 420,2013-01-27 15:14:00,
2013-01-27 08:19:00,44.2,44.2,29.85,North,0,0.0,6.0,100,0.00,,,0.05,WSDL version 420,2013-01-27 15:19:00,
2013-01-27 08:24:00,44.2,44.2,29.85,North,-999,-999.0,-999.0,100,0.00,,,0.05,WSDL version 420,2013-01-27 15:24:00,
2013-01-27 08:29:00,44.2,44.2,29.88,North,0,0.0,5.6,100,0.00,,,0.05,WSDL version 420,2013-01-27 15:29:00,
2013-01-27 08:34:00,44.2,44.2,29.88,North,-999,-999.0,-999.0,100,0.00,,,0.05,WSDL version 420,2013-01-27 15:34:00,
2013-01-27 08:39:00,44.2,44.2,29.88,North,-999,-999.0,-999.0,100,0.00,,,0.05,WSDL version 420,2013-01-27 15:39:00,
2013-01-27 08:44:00,44.2,44.2,29.85,North,-999,-999.0,-999.0,100,0.00,,,0.05,WSDL version 420,2013-01-27 15:44:00,
2013-01-27 08:49:00,44.3,44.3,29.85,North,-999,-999.0,-999.0,100,0.00,,,0.05,WSDL version 420,2013-01-27 15:49:00,
2013-01-27 08:54:00,44.4,44.4,29.85,North,-999,-999.0,-999.0,100,0.00,,,0.05,WSDL version 420,2013-01-27 15:54:00,
2013-01-27 08:59:00,44.5,44.5,29.85,North,-999,-999.0,-999.0,100,0.00,,,0.05,WSDL version 420,2013-01-27 15:59:00,
2013-01-27 09:04:00,44.6,44.6,29.85,North,-999,-999.0,-999.0,100,0.00,,,0.05,WSDL version 420,2013-01-27 16:04:00,
2013-01-27 09:09:00,44.6,44.6,29.85,North,-999,-999.0,-999.0,100,0.00,,,0.05,WSDL version 420,2013-01-27 16:09:00,
2013-01-27 09:14:00,44.8,44.8,29.88,North,-999,-999.0,-999.0,100,0.00,,,0.05,WSDL version 420,2013-01-27 16:14:00,
2013-01-27 09:19:00,44.8,44.8,29.88,North,-999,-999.0,-999.0,100,0.00,,,0.05,WSDL version 420,2013-01-27 16:19:00,
2013-01-27 09:24:00,44.8,44.8,29.88,South,180,6.0,6.5,100,0.00,,,0.05,WSDL version 420,2013-01-27 16:24:00,
2013-01-27 09:29:00,44.9,44.9,29.88,North,-999,-999.0,-999.0,100,0.00,,,0.05,WSDL version 420,2013-01-27 16:29:00,
2013-01-27 09:34:00,45.4,45.4,29.88,North,-999,-999.0,-999.0,100,0.00,,,0.05,WSDL version 420,2013-01-27 16:34:00,
2013-01-27 09:39:00,45.9,45.9,29.88,North,-999,-999.0,-999.0,100,0.00,,,0.05,WSDL version 420,2013-01-27 16:39:00,
2013-01-27 09:44:00,46.7,46.7,29.88,North,-999,-999.0,-999.0,100,0.00,,,0.05,WSDL version 420,2013-01-27 16:44:00,
2013-01-27 09:49:00,47.1,47.1,29.88,SE,135,6.3,7.8,100,0.00,,,0.05,WSDL version 420,2013-01-27 16:49:00,
2013-01-27 09:54:00,47.3,47.3,29.88,North,-999,-999.0,-999.0,100,0.00,,,0.05,WSDL version 420,2013-01-27 16:54:00,
2013-01-27 09:59:00,47.3,47.3,29.88,SSE,158,4.7,5.8,100,0.00,,,0.05,WSDL version 420,2013-01-27 16:59:00,
2013-01-27 10:04:00,47.3,47.3,29.88,North,-999,-999.0,-999.0,100,0.00,,,0.05,WSDL version 420,2013-01-27 17:04:00,
2013-01-27 10:09:00,47.4,47.4,29.88,South,169,4.4,4.7,100,0.00,,,0.05,WSDL version 420,2013-01-27 17:09:00,
2013-01-27 10:14:00,48.4,48.4,29.88,North,-999,-999.0,-999.0,100,0.00,,,0.05,WSDL version 420,2013-01-27 17:14:00,
2013-01-27 10:19:00,48.5,48.5,29.88,SSE,158,4.7,5.4,100,0.00,,,0.05,WSDL version 420,2013-01-27 17:19:00,
2013-01-27 10:32:00,48.2,47.9,24.72,North,-999,-999.0,-999.0,99,-99.99,,,-99.99,WSDL version 420,2013-01-27 17:32:00,
2013-01-27 10:37:00,48.2,47.7,24.72,SSW,203,4.8,5.8,98,0.00,,,0.05,WSDL version 420,2013-01-27 17:37:00,
2013-01-27 10:42:00,48.1,47.4,24.72,SW,218,4.8,6.3,98,0.00,,,0.05,WSDL version 420,2013-01-27 17:42:00,
2013-01-27 10:47:00,48.0,47.1,29.88,SW,218,4.6,6.3,97,0.00,,,0.05,WSDL version 420,2013-01-27 17:47:00,
2013-01-27 10:52:00,47.8,46.9,29.88,South,169,4.7,5.8,97,0.00,,,0.05,WSDL version 420,2013-01-27 17:52:00,
2013-01-27 10:57:00,47.4,46.2,29.88,North,-999,-999.0,-999.0,96,0.04,,,0.09,WSDL version 420,2013-01-27 17:57:00,
2013-01-27 11:02:00,47.3,46.1,29.88,South,180,3.4,7.8,96,0.04,,,0.09,WSDL version 420,2013-01-27 18:02:00,
2013-01-27 11:07:00,47.5,46.3,29.88,SSE,158,2.0,4.3,97,0.04,,,0.09,WSDL version 420,2013-01-27 18:07:00,
2013-01-27 11:12:00,47.8,46.9,29.88,SSW,203,4.5,4.9,97,0.04,,,0.09,WSDL version 420,2013-01-27 18:12:00,
2013-01-27 11:17:00,47.8,46.9,29.85,South,169,4.7,5.6,96,0.04,,,0.09,WSDL version 420,2013-01-27 18:17:00,
2013-01-27 11:22:00,47.5,46.1,29.85,South,173,6.6,7.8,94,0.04,,,0.09,WSDL version 420,2013-01-27 18:22:00,
2013-01-27 11:27:00,47.4,45.5,29.85,South,173,5.8,7.8,93,0.04,,,0.09,WSDL version 420,2013-01-27 18:27:00,
2013-01-27 11:32:00,47.4,45.2,29.85,South,169,5.8,7.8,92,0.04,,,0.09,WSDL version 420,2013-01-27 18:32:00,
2013-01-27 11:37:00,47.7,45.8,29.85,North,0,0.0,7.4,93,0.04,,,0.09,WSDL version 420,2013-01-27 18:37:00,
2013-01-27 11:42:00,48.4,46.8,29.85,SSE,158,7.5,10.3,94,0.04,,,0.09,WSDL version 420,2013-01-27 18:42:00,
2013-01-27 11:47:00,49.0,47.5,29.85,North,-999,-999.0,-999.0,94,0.04,,,0.09,WSDL version 420,2013-01-27 18:47:00,
2013-01-27 11:52:00,49.3,47.4,29.85,SSE,158,4.9,8.9,93,0.04,,,0.09,WSDL version 420,2013-01-27 18:52:00,
2013-01-27 11:57:00,49.2,46.2,29.85,North,-999,-999.0,-999.0,87,0.00,,,0.09,WSDL version 420,2013-01-27 18:57:00,
2013-01-27 12:02:00,49.1,44.2,29.85,North,0,0.0,10.3,83,0.00,,,0.09,WSDL version 420,2013-01-27 19:02:00,
2013-01-27 12:07:00,49.3,44.2,29.85,South,171,4.8,11.2,83,0.00,,,0.09,WSDL version 420,2013-01-27 19:07:00,
2013-01-27 12:12:00,49.5,44.8,29.85,South,180,4.7,11.2,83,0.00,,,0.09,WSDL version 420,2013-01-27 19:12:00,
2013-01-27 12:17:00,49.6,44.4,29.85,South,180,5.1,7.2,82,0.00,,,0.09,WSDL version 420,2013-01-27 19:17:00,
2013-01-27 12:22:00,49.7,44.5,29.85,South,180,6.0,6.7,81,0.00,,,0.09,WSDL version 420,2013-01-27 19:22:00,
2013-01-27 12:27:00,50.2,45.1,29.85,North,-999,-999.0,-999.0,83,0.00,,,0.09,WSDL version 420,2013-01-27 19:27:00,
2013-01-27 12:32:00,50.9,45.9,29.85,SW,218,8.4,10.1,81,0.00,,,0.09,WSDL version 420,2013-01-27 19:32:00,
2013-01-27 12:37:00,51.6,45.1,29.85,SW,233,9.4,11.0,77,0.00,,,0.09,WSDL version 420,2013-01-27 19:37:00,
2013-01-27 12:42:00,51.8,44.1,29.85,SW,236,10.5,12.5,74,0.00,,,0.09,WSDL version 420,2013-01-27 19:42:00,
2013-01-27 12:47:00,52.3,43.7,29.85,SW,225,11.0,12.5,71,0.00,,,0.09,WSDL version 420,2013-01-27 19:47:00,
2013-01-27 12:52:00,52.5,43.1,29.85,North,-999,-999.0,-999.0,70,0.00,,,0.09,WSDL version 420,2013-01-27 19:52:00,
2013-01-27 12:57:00,52.6,43.3,29.85,SW,236,9.2,11.2,70,0.00,,,0.09,WSDL version 420,2013-01-27 19:57:00,
2013-01-27 13:02:00,51.9,41.8,29.85,SW,233,8.7,11.2,68,0.00,,,0.09,WSDL version 420,2013-01-27 20:02:00,
2013-01-27 13:07:00,51.8,41.9,29.85,SSW,203,6.5,10.3,70,0.00,,,0.09,WSDL version 420,2013-01-27 20:07:00,
2013-01-27 13:12:00,51.1,42.8,29.85,SSW,203,7.6,12.8,74,0.00,,,0.09,WSDL version 420,2013-01-27 20:12:00,
2013-01-27 13:17:00,50.1,42.8,29.83,South,174,8.8,12.8,78,0.00,,,0.09,WSDL version 420,2013-01-27 20:17:00,
2013-01-27 13:22:00,49.6,43.9,29.83,North,-999,-999.0,-999.0,81,0.00,,,0.09,WSDL version 420,2013-01-27 20:22:00,
2013-01-27 13:27:00,49.4,44.4,29.83,SSE,158,10.3,13.2,84,0.00,,,0.09,WSDL version 420,2013-01-27 20:27:00,
2013-01-27 13:32:00,49.2,44.7,29.83,South,191,9.4,13.6,84,0.00,,,0.09,WSDL version 420,2013-01-27 20:32:00,
2013-01-27 13:37:00,48.8,44.2,29.83,SSE,158,10.6,13.6,84,0.00,,,0.09,WSDL version 420,2013-01-27 20:37:00,
2013-01-27 13:42:00,48.8,44.5,29.83,SSE,158,9.7,13.0,86,0.00,,,0.09,WSDL version 420,2013-01-27 20:42:00,
2013-01-27 13:47:00,48.9,44.9,29.83,South,180,9.2,13.0,87,0.00,,,0.09,WSDL version 420,2013-01-27 20:47:00,
2013-01-27 13:52:00,48.9,45.1,29.83,South,169,8.2,11.0,87,0.00,,,0.09,WSDL version 420,2013-01-27 20:52:00,
2013-01-27 13:57:00,49.1,45.3,29.83,SSE,158,9.4,10.7,88,0.00,,,0.09,WSDL version 420,2013-01-27 20:57:00,
2013-01-27 14:02:00,49.4,46.0,29.83,South,191,7.8,10.7,89,0.00,,,0.09,WSDL version 420,2013-01-27 21:02:00,
2013-01-27 14:07:00,49.3,45.6,29.83,South,186,6.5,9.6,87,0.00,,,0.09,WSDL version 420,2013-01-27 21:07:00,
2013-01-27 14:12:00,49.2,44.9,29.83,SSE,158,10.4,12.5,83,0.00,,,0.09,WSDL version 420,2013-01-27 21:12:00,
2013-01-27 14:17:00,48.8,44.0,29.83,SSE,163,10.8,12.5,83,0.00,,,0.09,WSDL version 420,2013-01-27 21:17:00,
2013-01-27 14:22:00,48.4,44.0,29.83,SSE,158,11.0,14.1,86,0.00,,,0.09,WSDL version 420,2013-01-27 21:22:00,
2013-01-27 14:27:00,48.2,44.6,29.83,South,180,10.4,18.6,89,0.00,,,0.09,WSDL version 420,2013-01-27 21:27:00,
2013-01-27 14:32:00,48.1,45.7,29.83,SSE,158,8.3,18.6,92,0.00,,,0.09,WSDL version 420,2013-01-27 21:32:00,
2013-01-27 14:37:00,48.0,46.3,29.83,South,169,8.7,12.3,94,0.00,,,0.09,WSDL version 420,2013-01-27 21:37:00,
2013-01-27 14:42:00,47.9,46.0,29.83,North,0,0.0,12.3,93,0.00,,,0.09,WSDL version 420,2013-01-27 21:42:00,
2013-01-27 14:47:00,47.7,45.6,29.83,SSE,158,9.7,15.9,93,0.04,,,0.13,WSDL version 420,2013-01-27 21:47:00,
2013-01-27 14:52:00,47.8,46.2,29.83,SSE,158,7.6,15.9,96,0.04,,,0.13,WSDL version 420,2013-01-27 21:52:00,
2013-01-27 14:57:00,47.9,46.8,29.83,North,-999,-999.0,-999.0,97,0.04,,,0.13,WSDL version 420,2013-01-27 21:57:00,
2013-01-27 15:02:00,47.7,46.8,29.83,South,171,9.7,12.1,97,0.04,,,0.13,WSDL version 420,2013-01-27 22:02:00,
2013-01-27 15:07:00,47.7,46.6,29.83,South,180,10.7,13.0,97,0.04,,,0.13,WSDL version 420,2013-01-27 22:07:00,
2013-01-27 15:12:00,47.7,46.8,29.83,South,169,11.9,17.0,97,0.04,,,0.13,WSDL version 420,2013-01-27 22:12:00,
2013-01-27 15:17:00,47.8,46.9,29.83,South,180,9.2,17.0,97,0.04,,,0.13,WSDL version 420,2013-01-27 22:17:00,
2013-01-27 15:22:00,47.6,46.7,29.83,South,169,9.1,14.1,97,0.04,,,0.13,WSDL version 420,2013-01-27 22:22:00,
2013-01-27 15:27:00,47.5,46.6,29.83,South,176,7.9,14.1,97,0.04,,,0.13,WSDL version 420,2013-01-27 22:27:00,
2013-01-27 15:32:00,47.5,46.6,29.83,South,186,7.3,13.2,97,0.04,,,0.13,WSDL version 420,2013-01-27 22:32:00,
2013-01-27 15:37:00,47.3,46.5,29.83,SSE,167,9.4,14.8,97,0.04,,,0.13,WSDL version 420,2013-01-27 22:37:00,
2013-01-27 15:42:00,47.6,47.0,29.83,SSE,158,7.8,14.8,98,0.04,,,0.13,WSDL version 420,2013-01-27 22:42:00,
2013-01-27 15:47:00,47.6,46.5,29.83,South,188,6.7,10.5,96,0.00,,,0.13,WSDL version 420,2013-01-27 22:47:00,
2013-01-27 15:52:00,47.6,46.0,29.83,North,0,0.0,10.5,93,0.00,,,0.13,WSDL version 420,2013-01-27 22:52:00,
2013-01-27 15:57:00,47.7,45.6,29.83,SSW,203,9.4,9.4,91,0.00,,,0.13,WSDL version 420,2013-01-27 22:57:00,
2013-01-27 16:02:00,48.1,45.0,29.83,SSW,203,6.6,8.7,88,0.00,,,0.13,WSDL version 420,2013-01-27 23:02:00,
2013-01-27 16:07:00,48.0,44.2,29.83,South,180,7.6,9.8,86,0.00,,,0.13,WSDL version 420,2013-01-27 23:07:00,
2013-01-27 16:12:00,48.1,43.2,29.83,SSE,158,9.8,9.8,81,0.00,,,0.13,WSDL version 420,2013-01-27 23:12:00,
2013-01-27 16:17:00,48.3,42.2,29.83,SW,225,7.4,13.2,79,0.00,,,0.13,WSDL version 420,2013-01-27 23:17:00,
2013-01-27 16:22:00,48.4,42.1,29.83,SW,233,6.8,13.2,79,0.00,,,0.13,WSDL version 420,2013-01-27 23:22:00,
2013-01-27 16:27:00,48.4,42.2,29.83,South,191,9.6,10.7,79,0.00,,,0.13,WSDL version 420,2013-01-27 23:27:00,
2013-01-27 16:37:00,47.9,40.5,29.83,South,169,7.6,12.3,75,0.00,,,0.13,WSDL version 420,2013-01-27 23:37:00,
2013-01-27 16:42:00,47.8,40.0,29.83,SSW,203,7.8,12.3,73,0.00,,,0.13,WSDL version 420,2013-01-27 23:42:00,
2013-01-27 16:47:00,47.8,40.2,29.80,South,180,8.7,10.5,74,0.00,,,0.13,WSDL version 420,2013-01-27 23:47:00,
2013-01-27 16:52:00,47.6,39.7,29.80,South,186,9.2,12.1,74,0.00,,,0.13,WSDL version 420,2013-01-27 23:52:00,
2013-01-27 16:57:00,47.4,39.5,29.80,South,188,7.5,12.1,75,0.00,,,0.13,WSDL version 420,2013-01-27 23:57:00,
2013-01-27 17:02:00,47.1,39.2,29.83,South,185,6.9,11.0,74,0.00,,,0.13,WSDL version 420,2013-01-28 00:02:00,
2013-01-27 17:07:00,46.9,38.7,29.83,South,188,7.5,13.0,73,0.00,,,0.13,WSDL version 420,2013-01-28 00:07:00,
2013-01-27 17:12:00,46.8,39.0,29.83,SSW,195,7.0,13.0,76,0.00,,,0.13,WSDL version 420,2013-01-28 00:12:00,
2013-01-27 17:17:00,46.8,39.7,29.83,South,180,10.1,12.8,77,0.00,,,0.13,WSDL version 420,2013-01-28 00:17:00,
2013-01-27 17:22:00,46.5,39.6,29.83,South,180,8.7,12.8,77,0.00,,,0.13,WSDL version 420,2013-01-28 00:22:00,
2013-01-27 17:27:00,46.3,39.7,29.83,SSW,203,9.6,10.7,79,0.00,,,0.13,WSDL version 420,2013-01-28 00:27:00,
2013-01-27 17:32:00,46.0,40.0,29.83,SSW,203,8.7,10.1,80,0.00,,,0.13,WSDL version 420,2013-01-28 00:32:00,
2013-01-27 17:37:00,45.8,40.0,29.83,South,188,7.8,10.3,80,0.00,,,0.13,WSDL version 420,2013-01-28 00:37:00,
2013-01-27 17:42:00,45.5,40.0,29.83,South,173,7.6,10.5,81,0.00,,,0.13,WSDL version 420,2013-01-28 00:42:00,
2013-01-27 17:47:00,45.3,40.2,29.80,SSE,161,7.7,10.5,82,0.00,,,0.13,WSDL version 420,2013-01-28 00:47:00,
2013-01-27 17:52:00,45.2,40.1,29.80,SSW,195,6.7,9.8,82,0.00,,,0.13,WSDL version 420,2013-01-28 00:52:00,
2013-01-27 17:57:00,45.0,40.0,29.80,SSE,158,7.3,10.3,83,0.00,,,0.13,WSDL version 420,2013-01-28 00:57:00,
2013-01-27 18:02:00,44.8,40.0,29.80,South,180,5.6,10.3,83,0.00,,,0.13,WSDL version 420,2013-01-28 01:02:00,
2013-01-27 18:07:00,44.7,40.3,29.80,South,186,4.8,9.4,84,0.00,,,0.13,WSDL version 420,2013-01-28 01:07:00,
2013-01-27 18:12:00,44.6,40.2,29.80,South,174,4.9,6.5,86,0.00,,,0.13,WSDL version 420,2013-01-28 01:12:00,
2013-01-27 18:17:00,44.3,40.3,29.83,SSE,165,6.7,8.5,86,0.00,,,0.13,WSDL version 420,2013-01-28 01:17:00,
2013-01-27 18:22:00,44.2,40.2,29.83,SSE,167,6.4,8.5,87,0.00,,,0.13,WSDL version 420,2013-01-28 01:22:00,
2013-01-27 18:27:00,44.0,40.5,29.83,SSE,152,6.2,9.4,88,0.00,,,0.13,WSDL version 420,2013-01-28 01:27:00,
2013-01-27 18:32:00,43.9,40.8,29.83,SSE,158,6.4,9.4,89,0.00,,,0.13,WSDL version 420,2013-01-28 01:32:00,
2013-01-27 18:37:00,43.9,41.1,29.83,SSE,150,6.0,8.1,90,0.00,,,0.13,WSDL version 420,2013-01-28 01:37:00,
2013-01-27 18:42:00,43.7,41.0,29.83,SE,145,5.3,8.1,90,0.00,,,0.13,WSDL version 420,2013-01-28 01:42:00,
2013-01-27 18:47:00,43.6,40.7,29.80,SE,135,5.4,8.1,89,0.00,,,0.13,WSDL version 420,2013-01-28 01:47:00,
2013-01-27 18:52:00,43.5,40.3,29.80,SE,143,6.1,8.1,88,0.00,,,0.13,WSDL version 420,2013-01-28 01:52:00,
2013-01-27 18:57:00,43.4,40.1,29.80,North,0,0.0,7.4,88,0.00,,,0.13,WSDL version 420,2013-01-28 01:57:00,
2013-01-27 19:02:00,43.3,39.8,29.80,SSE,158,5.7,7.6,87,0.00,,,0.13,WSDL version 420,2013-01-28 02:02:00,
2013-01-27 19:07:00,43.3,39.7,29.80,SSE,167,7.1,8.9,88,0.00,,,0.13,WSDL version 420,2013-01-28 02:07:00,
2013-01-27 19:12:00,43.5,40.1,29.80,South,186,7.5,11.0,88,0.00,,,0.13,WSDL version 420,2013-01-28 02:12:00,
2013-01-27 19:17:00,43.5,40.1,29.80,South,169,7.2,12.8,88,0.00,,,0.13,WSDL version 420,2013-01-28 02:17:00,
2013-01-27 19:22:00,43.5,40.1,29.80,SSW,203,9.4,14.3,88,0.00,,,0.13,WSDL version 420,2013-01-28 02:22:00,
2013-01-27 19:27:00,43.3,39.9,29.80,South,169,12.1,22.8,87,0.00,,,0.13,WSDL version 420,2013-01-28 02:27:00,
2013-01-27 19:32:00,43.2,38.7,29.83,South,174,8.7,22.8,83,0.00,,,0.13,WSDL version 420,2013-01-28 02:32:00,
2013-01-27 19:37:00,43.0,38.6,29.83,SSW,194,6.4,13.0,84,0.00,,,0.13,WSDL version 420,2013-01-28 02:37:00,
2013-01-27 19:42:00,43.0,39.0,29.83,North,0,0.0,8.1,86,0.00,,,0.13,WSDL version 420,2013-01-28 02:42:00,
2013-01-27 19:47:00,43.0,39.3,29.80,South,169,4.4,6.5,87,0.00,,,0.13,WSDL version 420,2013-01-28 02:47:00,
2013-01-27 19:52:00,43.0,39.3,29.80,SE,135,3.5,6.5,88,0.00,,,0.13,WSDL version 420,2013-01-28 02:52:00,
2013-01-27 19:57:00,42.6,39.3,29.80,ESE,116,2.9,6.0,88,0.00,,,0.13,WSDL version 420,2013-01-28 02:57:00,
2013-01-27 20:02:00,42.3,39.4,29.80,SE,135,4.3,6.3,90,0.00,,,0.13,WSDL version 420,2013-01-28 03:02:00,
2013-01-27 20:07:00,42.3,40.3,29.80,SE,131,4.3,6.3,93,0.00,,,0.13,WSDL version 420,2013-01-28 03:07:00,
2013-01-27 20:12:00,42.3,40.7,29.80,SSE,153,4.7,5.6,94,0.00,,,0.13,WSDL version 420,2013-01-28 03:12:00,
2013-01-27 20:17:00,42.1,40.6,29.80,SE,146,4.8,5.8,94,0.00,,,0.13,WSDL version 420,2013-01-28 03:17:00,
2013-01-27 20:22:00,42.1,40.6,29.80,SE,128,4.5,6.5,94,0.00,,,0.13,WSDL version 420,2013-01-28 03:22:00,
2013-01-27 20:27:00,41.8,40.1,29.80,SSE,150,5.3,6.5,93,0.00,,,0.13,WSDL version 420,2013-01-28 03:27:00,
2013-01-27 20:32:00,41.7,40.2,29.80,SSE,150,4.7,6.3,94,0.00,,,0.13,WSDL version 420,2013-01-28 03:32:00,
2013-01-27 20:37:00,41.7,40.1,29.80,SSE,152,4.6,6.3,93,0.00,,,0.13,WSDL version 420,2013-01-28 03:37:00,
2013-01-27 20:42:00,41.7,40.0,29.80,SSE,158,3.7,6.3,93,0.00,,,0.13,WSDL version 420,2013-01-28 03:42:00,
2013-01-27 20:47:00,41.7,40.1,29.80,SSE,158,3.6,4.9,94,0.00,,,0.13,WSDL version 420,2013-01-28 03:47:00,
2013-01-27 20:52:00,41.7,40.0,29.80,SSE,158,4.5,6.3,93,0.00,,,0.13,WSDL version 420,2013-01-28 03:52:00,
2013-01-27 20:57:00,41.6,39.8,29.80,SSE,163,4.1,6.3,93,0.00,,,0.13,WSDL version 420,2013-01-28 03:57:00,
2013-01-27 21:02:00,41.5,39.5,29.80,SE,135,3.4,5.6,92,0.00,,,0.13,WSDL version 420,2013-01-28 04:02:00,
2013-01-27 21:07:00,41.4,39.1,29.80,SSE,149,3.8,5.4,91,0.00,,,0.13,WSDL version 420,2013-01-28 04:07:00,
2013-01-27 21:12:00,41.2,38.3,29.80,ESE,113,3.8,5.4,89,0.00,,,0.13,WSDL version 420,2013-01-28 04:12:00,
2013-01-27 21:17:00,41.0,38.0,29.80,ESE,113,2.3,4.3,89,0.00,,,0.13,WSDL version 420,2013-01-28 04:17:00,
2013-01-27 21:22:00,40.9,37.9,29.80,East,90,2.5,4.0,90,0.00,,,0.13,WSDL version 420,2013-01-28 04:22:00,
2013-01-27 21:27:00,40.7,38.0,29.80,East,90,2.3,3.1,90,0.00,,,0.13,WSDL version 420,2013-01-28 04:27:00,
2013-01-27 21:32:00,40.5,37.8,29.80,East,90,2.8,3.1,90,0.00,,,0.13,WSDL version 420,2013-01-28 04:32:00,
2013-01-27 21:37:00,40.5,37.8,29.80,East,90,2.7,3.1,90,0.00,,,0.13,WSDL version 420,2013-01-28 04:37:00,
2013-01-27 21:42:00,40.3,37.6,29.80,East,90,2.0,3.1,90,0.00,,,0.13,WSDL version 420,2013-01-28 04:42:00,
2013-01-27 21:47:00,40.2,37.5,29.80,East,90,2.6,3.4,90,0.00,,,0.13,WSDL version 420,2013-01-28 04:47:00,
2013-01-27 21:52:00,40.1,37.5,29.80,East,90,2.4,3.4,91,0.00,,,0.13,WSDL version 420,2013-01-28 04:52:00,
2013-01-27 21:57:00,40.1,37.7,29.80,SSE,152,2.7,3.6,91,0.00,,,0.13,WSDL version 420,2013-01-28 04:57:00,
2013-01-27 22:04:00,39.9,37.5,29.80,SE,129,3.6,4.3,91,0.00,,,0.13,WSDL version 420,2013-01-28 05:04:00,
2013-01-27 22:09:00,39.9,37.4,29.80,South,180,2.4,5.4,90,0.00,,,0.13,WSDL version 420,2013-01-28 05:09:00,
2013-01-27 22:14:00,39.9,37.1,29.80,SSE,151,2.6,5.4,89,0.00,,,0.13,WSDL version 420,2013-01-28 05:14:00,
2013-01-27 22:19:00,39.9,36.7,29.80,ESE,113,1.1,3.4,88,0.00,,,0.13,WSDL version 420,2013-01-28 05:19:00,
2013-01-27 22:24:00,39.8,36.4,29.80,ESE,108,2.7,4.7,88,0.00,,,0.13,WSDL version 420,2013-01-28 05:24:00,
2013-01-27 22:29:00,39.9,36.3,29.80,ENE,71,3.1,4.7,87,0.00,,,0.13,WSDL version 420,2013-01-28 05:29:00,
2013-01-27 22:34:00,39.9,36.1,29.80,SSW,203,1.7,4.7,86,0.00,,,0.13,WSDL version 420,2013-01-28 05:34:00,
2013-01-27 22:39:00,39.9,35.6,29.80,SE,135,1.0,4.0,84,0.00,,,0.13,WSDL version 420,2013-01-28 05:39:00,
2013-01-27 22:44:00,39.9,35.5,29.80,South,180,1.3,2.7,83,0.00,,,0.13,WSDL version 420,2013-01-28 05:44:00,
2013-01-27 22:49:00,39.9,35.1,29.77,ESE,113,1.7,2.7,82,0.00,,,0.13,WSDL version 420,2013-01-28 05:49:00,
2013-01-27 22:54:00,39.9,34.6,29.77,ESE,113,1.2,2.2,81,0.00,,,0.13,WSDL version 420,2013-01-28 05:54:00,
2013-01-27 22:59:00,39.7,34.1,29.77,East,95,2.1,3.1,80,0.00,,,0.13,WSDL version 420,2013-01-28 05:59:00,
2013-01-27 23:04:00,39.5,33.4,29.77,East,90,3.3,5.4,78,0.00,,,0.13,WSDL version 420,2013-01-28 06:04:00,
2013-01-27 23:09:00,38.8,32.2,29.77,East,83,3.7,5.6,77,0.00,,,0.13,WSDL version 420,2013-01-28 06:09:00,
2013-01-27 23:14:00,38.5,32.2,29.77,ENE,68,3.3,5.6,78,0.00,,,0.13,WSDL version 420,2013-01-28 06:14:00,
2013-01-27 23:19:00,38.5,32.2,29.77,East,90,3.4,4.0,78,0.00,,,0.13,WSDL version 420,2013-01-28 06:19:00,
2013-01-27 23:24:00,38.5,32.5,29.77,East,90,3.1,4.3,79,0.00,,,0.13,WSDL version 420,2013-01-28 06:24:00,
2013-01-27 23:29:00,38.7,33.1,29.77,ESE,104,3.1,4.9,80,0.00,,,0.13,WSDL version 420,2013-01-28 06:29:00,
2013-01-27 23:34:00,38.8,33.7,29.77,SE,135,0.9,4.9,82,0.00,,,0.13,WSDL version 420,2013-01-28 06:34:00,
2013-01-27 23:39:00,39.0,34.0,29.77,ESE,113,0.1,3.8,82,0.00,,,0.13,WSDL version 420,2013-01-28 06:39:00,
2013-01-27 23:44:00,39.0,34.1,29.77,NNE,23,0.0,2.9,83,0.00,,,0.13,WSDL version 420,2013-01-28 06:44:00,
2013-01-27 23:49:00,39.0,34.3,29.77,NNE,23,1.8,3.6,83,0.00,,,0.13,WSDL version 420,2013-01-28 06:49:00,
2013-01-27 23:54:00,39.1,34.4,29.77,NNE,17,0.7,3.6,83,0.00,,,0.13,WSDL version 420,2013-01-28 06:54:00,
2013-01-27 23:59:00,39.2,34.6,29.77,NNE,23,0.0,3.1,83,0.00,,,0.00,WSDL version 420,2013-01-28 06:59:00,